• In France
  • List of Countries
  • For 7 days
  • Water Temperature
  • Satellite Maps
  • Weather Map
  • Weather Widgets
  • user-avatar
    Login

    Hourly Weather Nikoia

    Today, 19 February, Monday

    Time Temperature Precipitation Wind Pressure Humidity
    00:00 +26°C° 0 mm 5 mps 746 mmHg 66%
    01:00 +25°C° 0 mm 5 mps 746 mmHg 67%
    02:00 +25°C° 0 mm 5 mps 746 mmHg 68%
    03:00 +25°C° 0 mm 5 mps 745 mmHg 69%
    04:00 +25°C° 0 mm 5 mps 746 mmHg 70%
    05:00 +25°C° 0 mm 5 mps 746 mmHg 71%
    06:00 +23°C° 0 mm 5 mps 746 mmHg 71%
    07:00 +27°C° 0 mm 5 mps 746 mmHg 63%
    08:00 +29°C° 0 mm 5 mps 747 mmHg 54%
    09:00 +33°C° 0 mm 6 mps 747 mmHg 46%
    10:00 +34°C° 0 mm 5 mps 747 mmHg 42%
    11:00 +35°C° 0 mm 5 mps 746 mmHg 38%
    12:00 +37°C° 0 mm 5 mps 746 mmHg 34%
    13:00 +37°C° 0 mm 5 mps 746 mmHg 36%
    14:00 +36°C° 0 mm 5 mps 745 mmHg 37%
    15:00 +36°C° 0 mm 5 mps 745 mmHg 39%
    16:00 +34°C° 0 mm 5 mps 745 mmHg 46%
    17:00 +32°C° 0 mm 4 mps 745 mmHg 53%
    18:00 +29°C° 0 mm 4 mps 745 mmHg 61%
    19:00 +28°C° 0 mm 3 mps 745 mmHg 65%
    20:00 +27°C° 0 mm 3 mps 746 mmHg 69%
    21:00 +26°C° 0 mm 3 mps 746 mmHg 73%
    22:00 +26°C° 0 mm 3 mps 747 mmHg 73%
    23:00 +26°C° 0 mm 3 mps 747 mmHg 74%

    Tomorrow, 20 February, Tuesday

    Time Temperature Precipitation Wind Pressure Humidity
    00:00 +25°C° 0 mm 3 mps 747 mmHg 74%
    01:00 +25°C° 0 mm 3 mps 746 mmHg 74%
    02:00 +25°C° 0 mm 4 mps 746 mmHg 74%
    03:00 +25°C° 0 mm 4 mps 746 mmHg 75%
    04:00 +25°C° 0 mm 4 mps 746 mmHg 75%
    05:00 +23°C° 0 mm 4 mps 746 mmHg 75%
    06:00 +23°C° 0 mm 4 mps 746 mmHg 76%
    07:00 +27°C° 0 mm 5 mps 747 mmHg 66%
    08:00 +29°C° 0 mm 5 mps 748 mmHg 55%
    09:00 +33°C° 0 mm 6 mps 748 mmHg 45%
    10:00 +34°C° 0 mm 5 mps 748 mmHg 41%
    11:00 +35°C° 0 mm 5 mps 747 mmHg 37%
    12:00 +37°C° 0 mm 5 mps 747 mmHg 33%
    13:00 +37°C° 0 mm 5 mps 746 mmHg 35%
    14:00 +36°C° 0 mm 5 mps 746 mmHg 37%
    15:00 +36°C° 0 mm 5 mps 745 mmHg 39%
    16:00 +34°C° 0 mm 5 mps 745 mmHg 47%
    17:00 +32°C° 0 mm 4 mps 745 mmHg 54%
    18:00 +29°C° 0 mm 4 mps 746 mmHg 62%
    19:00 +28°C° 0 mm 4 mps 746 mmHg 65%
    20:00 +27°C° 0 mm 4 mps 747 mmHg 69%
    21:00 +26°C° 0 mm 4 mps 747 mmHg 72%
    22:00 +26°C° 0 mm 4 mps 747 mmHg 72%
    23:00 +26°C° 0 mm 4 mps 747 mmHg 73%

    Day after tomorrow, 21 February, Wednesday

    Time Temperature Precipitation Wind Pressure Humidity
    00:00 +26°C° 0 mm 4 mps 747 mmHg 73%
    01:00 +26°C° 0 mm 4 mps 747 mmHg 74%
    02:00 +25°C° 0 mm 4 mps 747 mmHg 74%
    03:00 +25°C° 0 mm 4 mps 746 mmHg 75%
    04:00 +25°C° 0 mm 4 mps 746 mmHg 75%
    05:00 +25°C° 0 mm 4 mps 747 mmHg 75%
    06:00 +25°C° 0 mm 4 mps 747 mmHg 75%
    07:00 +27°C° 0 mm 5 mps 747 mmHg 66%
    08:00 +30°C° 0 mm 5 mps 748 mmHg 58%
    09:00 +33°C° 0 mm 6 mps 748 mmHg 49%
    10:00 +34°C° 0 mm 5 mps 748 mmHg 45%
    11:00 +35°C° 0 mm 5 mps 748 mmHg 42%
    12:00 +37°C° 0 mm 5 mps 747 mmHg 38%
    13:00 +36°C° 0 mm 5 mps 747 mmHg 41%
    14:00 +35°C° 0 mm 5 mps 746 mmHg 45%
    15:00 +34°C° 0 mm 5 mps 746 mmHg 48%
    16:00 +33°C° 0 mm 4 mps 746 mmHg 53%
    17:00 +30°C° 0 mm 4 mps 746 mmHg 59%
    18:00 +29°C° 0 mm 3 mps 746 mmHg 65%
    19:00 +28°C° 0 mm 3 mps 747 mmHg 68%
    20:00 +27°C° 0 mm 3 mps 747 mmHg 71%
    21:00 +26°C° 0 mm 4 mps 748 mmHg 74%
    22:00 +26°C° 0 mm 4 mps 748 mmHg 74%
    23:00 +26°C° 0 mm 4 mps 748 mmHg 75%

    22 February, Thursday

    Time Temperature Precipitation Wind Pressure Humidity
    00:00 +26°C° 0 mm 4 mps 748 mmHg 76%
    01:00 +26°C° 0 mm 4 mps 747 mmHg 76%
    02:00 +25°C° 0 mm 4 mps 747 mmHg 77%
    03:00 +25°C° 0 mm 4 mps 747 mmHg 78%
    04:00 +25°C° 0 mm 4 mps 747 mmHg 77%
    05:00 +25°C° 0 mm 4 mps 747 mmHg 76%
    06:00 +25°C° 0 mm 5 mps 747 mmHg 76%
    07:00 +27°C° 0 mm 5 mps 748 mmHg 67%
    08:00 +29°C° 0 mm 6 mps 748 mmHg 58%
    09:00 +32°C° 0 mm 6 mps 749 mmHg 49%
    10:00 +34°C° 0 mm 6 mps 748 mmHg 45%
    11:00 +35°C° 0 mm 5 mps 748 mmHg 41%
    12:00 +37°C° 0 mm 5 mps 747 mmHg 37%
    13:00 +36°C° 0 mm 5 mps 747 mmHg 38%
    14:00 +36°C° 0 mm 5 mps 746 mmHg 39%
    15:00 +35°C° 0 mm 5 mps 745 mmHg 41%
    16:00 +33°C° 0 mm 5 mps 745 mmHg 46%
    17:00 +32°C° 0 mm 4 mps 746 mmHg 51%
    18:00 +29°C° 0 mm 4 mps 746 mmHg 56%
    19:00 +28°C° 0 mm 4 mps 747 mmHg 61%
    20:00 +27°C° 0 mm 4 mps 747 mmHg 65%
    21:00 +26°C° 0 mm 4 mps 748 mmHg 69%
    22:00 +26°C° 0 mm 4 mps 747 mmHg 70%
    23:00 +25°C° 0 mm 4 mps 747 mmHg 71%

    23 February, Friday

    Time Temperature Precipitation Wind Pressure Humidity
    00:00 +25°C° 0 mm 4 mps 747 mmHg 72%
    01:00 +25°C° 0 mm 4 mps 747 mmHg 73%
    02:00 +25°C° 0 mm 4 mps 746 mmHg 74%
    03:00 +25°C° 0 mm 4 mps 746 mmHg 74%
    04:00 +25°C° 0 mm 4 mps 746 mmHg 74%
    05:00 +25°C° 0 mm 4 mps 747 mmHg 74%
    06:00 +25°C° 0 mm 5 mps 747 mmHg 74%
    07:00 +27°C° 0 mm 5 mps 747 mmHg 64%
    08:00 +30°C° 0 mm 5 mps 748 mmHg 54%
    09:00 +33°C° 0 mm 5 mps 748 mmHg 43%
    10:00 +34°C° 0 mm 5 mps 748 mmHg 40%
    11:00 +35°C° 0 mm 5 mps 747 mmHg 37%
    12:00 +37°C° 0 mm 5 mps 747 mmHg 34%
    13:00 +36°C° 0 mm 5 mps 746 mmHg 36%
    14:00 +36°C° 0 mm 5 mps 745 mmHg 37%
    15:00 +36°C° 0 mm 5 mps 745 mmHg 38%
    16:00 +34°C° 0 mm 4 mps 745 mmHg 45%
    17:00 +31°C° 0 mm 3 mps 745 mmHg 52%
    18:00 +29°C° 0 mm 3 mps 746 mmHg 58%
    19:00 +28°C° 0 mm 3 mps 746 mmHg 63%
    20:00 +27°C° 0 mm 3 mps 747 mmHg 67%
    21:00 +26°C° 0 mm 3 mps 747 mmHg 72%
    22:00 +26°C° 0 mm 3 mps 747 mmHg 72%
    23:00 +25°C° 0 mm 3 mps 747 mmHg 73%

    24 February, Saturday

    Time Temperature Precipitation Wind Pressure Humidity
    00:00 +25°C° 0 mm 4 mps 747 mmHg 74%
    01:00 +25°C° 0 mm 4 mps 747 mmHg 75%
    02:00 +23°C° 0 mm 4 mps 746 mmHg 76%
    03:00 +23°C° 0 mm 4 mps 746 mmHg 78%
    04:00 +23°C° 0 mm 4 mps 746 mmHg 79%
    05:00 +24°C° 0 mm 3 mps 747 mmHg 80%
    06:00 +24°C° 0 mm 3 mps 747 mmHg 81%
    07:00 +26°C° 0 mm 4 mps 747 mmHg 70%
    08:00 +29°C° 0 mm 4 mps 748 mmHg 59%
    09:00 +32°C° 0 mm 4 mps 748 mmHg 48%
    10:00 +34°C° 0 mm 4 mps 748 mmHg 43%
    11:00 +35°C° 0 mm 4 mps 747 mmHg 39%
    12:00 +37°C° 0 mm 5 mps 747 mmHg 34%
    13:00 +36°C° 0 mm 4 mps 746 mmHg 36%
    14:00 +36°C° 0 mm 4 mps 746 mmHg 38%
    15:00 +35°C° 0 mm 3 mps 745 mmHg 40%
    16:00 +33°C° 0 mm 3 mps 745 mmHg 47%
    17:00 +31°C° 0 mm 2 mps 746 mmHg 53%
    18:00 +29°C° 0 mm 2 mps 746 mmHg 60%
    19:00 +28°C° 0.2 mm 2 mps 746 mmHg 65%
    20:00 +27°C° 0.2 mm 2 mps 747 mmHg 70%
    21:00 +26°C° 0.2 mm 1 mps 747 mmHg 74%
    22:00 +26°C° 0 mm 1 mps 747 mmHg 77%
    23:00 +25°C° 0 mm 2 mps 747 mmHg 79%
    Show more